カタログに戻る

NOAA 16 DEB

運用中SSO
NORAD 41079·DEBRIS·🇺🇸 United States

打ち上げ Sep 21, 2000 から Vandenberg Space Force Base

Loading…

次のパス (今後24時間)

TLE

最新Source: Space-Track

元期: Sep 13, 2026, 19:48 UTC

1 41079U 00055AN  26256.82504024  .00000292  00000-0  27673-3 0  9998
2 41079  99.1180 196.5172 0142866 149.6072 211.3463 13.84264965544728

AllMySatでNOAA 16 DEBをリアルタイム追跡

Download on the App Store